Location: Campillo
(40.8621°N, 4.2488°W)
Time: 16:16:57
(UTC+00:00)

Cosmos 1933 Rocket - Visible Passes

Search period start: 26 September 2021 00:00
Search period end: 06 October 2021 00:00
Orbit: 606 x 630 km, 82.5° (Epoch: 25 September)

Date Brightness Start Highest point End Pass type
(mag) Time Alt. Az. Time Alt. Az. Time Alt. Az.
26 Sep 5.7 03:20:36 10° NNE 03:24:17 25° ENE 03:27:58 10° SE visible
26 Sep 4.5 04:58:22 10° NNW 05:02:03 26° W 05:05:44 10° SW visible
27 Sep 4.5 03:37:14 10° N 03:41:31 46° E 03:43:01 33° SE visible
27 Sep 5.2 05:16:29 10° NW 05:18:54 15° W 05:19:54 14° W visible
28 Sep 4.2 03:54:12 10° N 03:57:25 48° N 03:57:25 48° N visible
29 Sep 6.6 02:35:01 10° NE 02:35:45 12° NE 02:35:45 12° NE visible
29 Sep 5.4 04:11:24 10° NNW 04:12:47 19° NNW 04:12:47 19° NNW visible
30 Sep 6.5 02:51:08 10° NNE 02:51:31 12° NNE 02:51:31 12° NNE visible
